USA 170

Last updated on Thu Nov 21 2024 00:02:40 GMT+0000 (Coordinated Universal Time)

1 27875U 03040A 24324.94264382 .00000127 00000+0 00000+0 0 9997 2 27875 9.2729 53.1165 0001598 180.1040 189.7106 1.00267012 27233
UTC large
Height (km)
Speed (km/s)
/
Latitude / Longitude
Inclination (degrees)
Orbital Period (minutes)
Azimuth
Elevation
Range (km)
Doppler Factor

Next 0 passes for location: London (51.5072 / 0.1276)

Sorry there are no passes over London.